RH
11 11 10 9 8 8 9 9 10 10 10 12 15 20 21 21 24 26 26 25 24 22 19 15 11 9 8 6 6 6 5 5 8 9 12 20 25 34 57 76 83 92 98 99 100 100 100 100 100 97 96 96 98 100 101 101 102 102 100 99 101 102 102 101 101 100 100 100 100 100 101 101 101 101 101 100 100 100 100 100 100 101 101 96 87 76
12 11 9 8 9 9 10 10 11 10 11 14 16 19 21 20 23 27 28 26 24 23 20 16 11 9 7 6 5 4 4 5 7 8 11 23 41 57 77 90 94 99 102 100 100 100 100 101 100 100 98 94 90 89 90 92 95 98 100 100 102 105 103 97 93 93 93 94 95 96 98 99 100 101 102 102 101 100 100 100 100 99 100 101 101 97
11 10 9 9 10 9 10 11 12 12 13 14 15 18 21 22 22 26 29 27 25 24 21 17 11 9 7 5 5 4 5 5 6 11 12 13 31 56 75 84 90 98 101 101 102 101 102 103 103 102 100 96 91 86 82 80 79 82 86 89 94 99 102 100 95 91 88 89 92 92 91 93 95 97 100 103 104 102 100 99 100 100 100 100 101 101
11 10 10 10 10 10 11 12 13 13 13 13 15 18 22 25 27 29 29 28 26 24 23 18 12 9 7 5 5 4 6 7 10 23 24 14 19 37 50 59 71 86 93 97 100 99 97 95 94 93 91 90 88 85 82 78 74 71 70 70 72 76 82 87 90 89 86 84 86 86 82 81 82 86 91 95 99 101 99 96 95 97 100 100 100 100
11 11 11 10 10 11 11 12 12 12 12 13 16 20 24 28 32 33 31 29 27 25 23 19 14 9 6 6 5 6 15 16 14 23 20 12 17 28 46 64 77 88 94 94 93 91 86 80 76 74 74 74 72 71 71 71 72 70 68 66 64 63 62 62 63 65 64 62 63 66 67 68 70 74 77 81 86 90 92 91 89 89 93 97 100 100
12 12 11 11 12 12 12 12 11 11 12 14 18 23 28 31 34 34 32 30 28 25 23 19 14 9 7 7 4 10 22 19 15 20 14 11 14 15 26 43 57 70 77 75 69 65 62 57 52 48 45 42 38 37 39 42 44 46 48 47 47 48 48 49 50 51 51 49 49 49 51 53 56 60 64 67 71 75 79 81 80 79 81 87 93 97
12 12 12 12 12 13 12 12 10 11 12 15 20 26 29 32 35 35 33 31 28 26 24 19 13 9 7 7 5 9 17 13 12 16 11 10 12 11 14 17 22 30 34 33 29 24 22 21 21 23 24 25 25 25 25 25 25 25 25 25 24 24 24 25 29 33 38 40 41 41 42 43 45 47 49 52 56 61 65 68 69 69 68 72 78 86
13 12 13 13 13 13 12 11 11 12 14 16 22 27 29 33 37 35 32 31 28 26 24 18 13 10 7 6 7 7 9 8 9 10 9 10 10 13 19 18 15 13 11 10 10 12 17 25 33 41 46 49 47 46 46 44 43 42 40 37 35 30 23 17 13 13 15 19 22 24 26 31 35 38 38 39 41 45 50 54 57 59 59 60 63 70
13 12 13 13 13 14 13 13 13 14 15 17 22 27 30 32 34 33 30 30 29 26 22 16 12 10 7 6 7 6 6 6 7 7 8 11 12 12 14 13 10 8 9 16 25 39 50 57 62 63 63 62 58 56 57 56 55 54 55 54 51 43 31 18 11 9 8 8 9 10 12 14 18 22 25 27 30 32 35 38 43 47 50 52 53 56
14 12 13 13 13 14 16 17 16 16 18 19 22 26 27 26 27 30 30 30 30 27 21 16 13 10 8 7 6 5 6 6 6 8 8 10 12 11 10 11 10 12 23 39 54 65 70 71 72 69 65 63 61 61 62 62 62 60 60 61 56 49 39 23 12 8 8 10 9 8 8 8 9 10 12 14 18 21 23 25 27 31 37 41 44 46
14 13 13 13 14 16 19 19 18 19 21 21 21 21 19 17 20 27 31 32 30 24 19 16 14 10 8 7 6 5 6 6 6 7 10 13 14 16 17 14 15 25 43 57 65 68 68 68 68 66 65 65 64 67 69 70 70 66 64 63 57 53 50 39 26 15 9 8 9 10 9 8 8 8 8 8 9 11 12 14 15 17 20 25 30 35
16 14 14 14 15 17 20 20 20 21 22 23 21 17 13 11 15 24 32 33 28 21 19 17 14 11 8 6 5 4 5 5 6 8 11 15 19 24 24 20 25 43 59 67 68 66 65 63 59 59 63 65 66 71 74 72 69 66 66 66 60 55 56 55 50 40 27 17 10 9 9 9 9 8 7 7 7 7 7 7 8 8 9 11 15 20
18 16 14 14 16 18 20 20 19 20 21 22 22 20 17 16 21 30 35 36 29 21 19 18 14 11 8 6 5 4 5 4 5 9 13 17 25 31 33 33 40 54 66 71 69 67 67 63 59 57 57 58 60 66 72 72 67 64 65 68 65 59 58 60 63 63 57 47 34 21 12 9 9 10 9 8 7 7 7 6 6 6 6 6 6 8
17 16 15 16 18 19 21 22 20 22 27 30 32 35 36 36 37 39 38 37 32 24 20 19 16 12 8 6 5 4 4 4 6 10 16 23 31 40 47 50 55 63 70 73 68 67 68 63 55 51 48 48 52 60 70 71 67 64 63 67 70 66 63 66 70 72 73 72 67 55 38 24 15 10 9 10 10 9 8 7 6 6 6 5 5 5
18 17 17 19 21 21 23 26 27 29 34 37 39 42 44 47 47 44 40 37 33 26 22 21 18 12 8 6 5 4 4 4 6 12 21 30 39 49 56 61 65 67 67 69 68 63 58 50 43 41 42 44 48 57 70 75 72 66 61 63 69 71 70 73 76 77 78 80 83 82 74 63 47 31 18 11 10 10 10 10 9 7 6 6 5 5
22 22 22 22 23 24 25 28 32 35 36 38 40 39 40 45 46 42 39 38 35 28 23 22 18 13 10 7 5 4 4 4 7 14 23 33 44 53 60 65 66 62 61 66 63 52 43 38 35 33 35 40 45 53 66 76 75 71 67 64 66 70 73 76 78 79 81 86 89 91 91 90 85 72 54 34 18 11 10 10 11 10 9 7 6 5
25 25 26 25 24 25 27 29 35 40 39 37 39 39 42 46 45 41 37 36 36 31 23 20 19 14 10 8 5 4 4 4 6 13 22 32 44 53 57 61 60 57 60 60 50 40 35 33 31 30 31 36 41 47 57 68 73 75 74 71 70 73 76 79 80 80 82 87 89 91 92 94 97 96 91 75 49 26 14 11 10 11 11 10 9 7
27 28 28 26 26 28 29 31 34 39 40 38 40 44 46 47 46 45 40 36 36 34 27 19 17 15 10 7 6 4 4 4 6 10 17 26 35 43 48 51 51 55 59 52 43 41 38 34 31 30 29 31 36 44 53 62 69 74 77 76 75 76 77 76 76 75 76 78 80 85 89 89 89 91 96 96 81 54 30 17 11 11 12 12 11 9
27 29 28 27 28 30 32 32 33 36 37 37 40 47 52 51 50 48 45 40 37 36 31 22 18 16 11 8 6 4 4 4 5 8 13 19 26 32 38 41 43 53 57 50 46 46 43 39 35 31 27 27 33 46 59 67 72 76 77 76 74 73 72 70 69 69 69 70 73 78 80 78 76 76 79 87 91 78 52 30 19 13 10 12 13 12
26 28 29 29 30 32 32 34 36 38 37 35 38 46 54 57 56 52 47 43 38 36 32 25 19 17 12 9 6 5 4 4 4 7 10 17 24 29 34 37 40 49 53 50 49 51 47 44 39 31 25 24 31 50 70 79 80 80 78 75 74 75 76 76 76 78 79 81 84 84 83 79 76 74 73 73 80 84 71 49 33 23 15 11 12 12
26 29 30 30 30 32 32 33 36 41 44 43 42 46 51 53 53 51 49 45 39 34 32 25 20 18 14 10 7 5 4 4 4 6 9 16 24 29 33 36 40 46 50 50 52 52 49 46 40 30 22 21 28 48 74 85 85 84 82 80 81 81 82 85 87 90 94 96 97 93 88 86 82 79 75 70 70 77 78 64 48 38 30 21 16 13
26 29 31 30 29 31 33 32 34 41 49 50 47 47 49 51 52 51 49 47 40 36 33 25 20 19 15 10 8 6 4 4 4 5 8 14 21 28 33 35 38 43 50 55 55 51 49 49 41 27 19 21 27 47 75 91 92 94 93 90 88 84 83 86 91 95 98 99 99 95 91 90 88 83 79 75 70 71 76 73 60 49 45 40 34 29
26 28 30 30 30 31 31 32 34 40 48 50 47 47 49 53 55 55 53 49 44 40 37 30 22 19 17 12 9 7 5 5 4 4 7 12 19 26 31 34 36 41 53 61 57 50 51 50 39 24 19 23 29 47 77 95 96 96 97 94 89 84 83 86 90 95 97 98 98 95 93 91 87 82 79 77 73 70 73 76 70 58 52 50 49 46
27 28 29 29 30 29 28 30 33 40 48 51 48 47 50 54 57 58 57 53 47 42 39 34 25 19 17 15 12 9 7 5 4 4 6 10 16 23 29 33 35 40 51 58 55 54 57 52 36 22 20 26 31 45 69 91 99 98 95 91 85 80 82 86 90 95 98 100 100 97 94 92 87 84 80 76 74 72 71 76 76 69 60 54 53 53
32 33 33 31 28 28 28 30 34 43 55 58 54 51 52 55 58 59 58 54 49 44 40 36 30 22 20 18 14 11 9 7 5 4 5 8 13 19 26 32 36 40 42 46 52 59 62 53 34 21 21 26 33 44 58 74 87 93 92 86 79 75 78 84 91 97 100 102 103 100 97 95 92 87 85 83 82 81 79 80 81 78 71 63 58 58
36 39 39 38 37 38 40 42 46 54 63 65 60 56 53 55 59 60 59 56 52 47 43 39 34 29 26 23 18 14 12 9 6 4 4 6 10 16 23 31 37 39 37 40 52 63 64 53 33 21 21 24 31 46 60 67 74 81 83 79 74 70 74 84 92 96 99 101 103 102 99 98 96 92 91 92 93 94 93 94 93 88 81 74 68 66
37 42 43 45 47 47 49 53 55 60 67 68 64 60 56 55 59 61 60 59 54 48 44 40 36 33 29 27 23 18 14 10 8 6 4 5 8 13 21 31 37 38 38 43 54 63 65 54 33 21 22 24 29 43 60 70 74 76 76 73 67 65 72 83 89 93 97 99 102 103 101 99 98 96 96 97 99 100 99 101 103 99 91 85 80 76
36 42 47 50 50 47 48 52 55 60 66 67 65 64 60 55 57 61 62 59 56 51 48 44 38 33 30 28 25 19 15 12 9 7 5 4 6 10 18 28 33 36 40 47 55 61 63 54 35 23 22 25 31 40 49 59 64 65 64 63 60 62 73 82 83 88 94 95 97 101 101 101 101 99 99 99 100 101 100 100 101 103 101 96 92 88
35 41 47 52 52 49 48 52 55 58 63 65 64 66 65 58 56 61 62 60 59 57 52 48 42 36 32 30 26 20 15 12 10 8 6 4 5 8 14 21 26 32 40 47 53 57 60 55 39 26 23 25 31 41 48 53 58 59 59 60 60 64 72 77 78 81 86 89 93 96 97 99 100 100 100 100 100 100 100 100 99 101 102 102 101 101
34 39 45 50 53 51 49 50 51 53 58 63 64 66 69 64 58 59 60 60 61 60 56 51 45 40 36 32 28 22 17 14 11 8 6 5 4 5 9 14 20 28 36 44 50 55 59 58 44 29 26 27 30 41 54 62 67 70 71 71 69 70 73 74 74 74 76 80 84 87 92 96 100 100 100 100 100 100 100 100 100 100 100 100 101 101
32 37 42 48 51 49 47 47 48 51 56 61 61 64 71 70 61 58 60 61 60 59 57 53 48 43 38 34 30 26 20 17 14 11 8 6 5 4 6 9 14 22 31 40 48 52 58 61 50 33 27 28 30 39 52 63 68 70 72 72 70 71 75 78 78 77 76 76 76 77 81 88 94 99 100 100 101 101 100 100 100 100 101 100 100 100
32 35 39 44 47 47 46 46 47 49 51 54 60 65 71 72 64 59 61 63 62 58 56 54 51 47 43 38 33 29 24 20 17 14 11 8 6 4 4 6 10 17 26 35 43 48 55 61 56 41 30 29 32 36 44 52 57 59 62 66 68 72 77 80 81 82 81 82 82 80 78 80 84 89 92 94 96 98 101 103 101 100 100 99 100 100
31 34 38 41 44 45 46 47 48 46 45 51 62 66 66 70 70 64 62 64 64 62 60 58 53 49 46 41 36 33 28 24 20 17 13 10 7 5 5 5 7 13 21 29 37 45 51 58 59 49 36 29 31 36 40 44 46 48 53 63 70 75 79 81 81 82 83 84 85 86 85 84 85 87 87 86 85 86 90 95 99 102 102 101 100 100
31 34 38 40 42 42 44 45 45 44 45 51 59 61 61 67 72 71 67 65 64 63 61 58 53 50 49 44 39 35 31 26 22 19 15 12 9 7 6 4 5 9 16 22 30 40 48 55 60 57 45 33 29 33 40 44 43 40 44 55 66 69 71 74 75 76 79 82 84 87 87 86 86 90 93 93 90 86 83 80 81 85 91 97 99 101
31 34 38 41 42 40 41 41 40 42 48 51 54 58 60 62 66 69 67 62 61 60 59 57 54 52 51 48 42 37 34 29 25 21 17 15 12 9 7 5 4 5 9 15 22 32 41 49 56 59 54 43 32 29 35 43 45 40 37 44 56 60 59 59 61 64 67 70 74 79 82 83 83 85 90 95 98 98 93 88 81 73 68 71 76 81
32 34 37 41 42 39 40 43 46 50 53 51 52 57 60 60 62 64 62 61 62 61 57 56 56 54 52 51 46 40 36 32 28 23 20 17 14 11 8 6 5 4 5 9 15 23 31 39 47 54 57 53 42 31 29 34 41 42 37 35 43 51 53 51 50 52 53 55 57 61 67 73 77 80 83 87 92 96 97 97 96 88 73 62 59 56
33 35 38 42 43 41 41 44 46 49 50 49 53 58 61 63 66 67 65 65 65 63 59 57 57 56 55 53 50 45 40 35 31 27 24 20 16 13 10 7 5 5 4 5 11 19 25 32 39 46 54 58 54 42 31 27 32 39 38 34 34 39 44 47 46 45 44 44 45 46 50 57 64 71 76 80 84 88 90 89 91 93 88 79 70 61
34 37 40 44 45 45 45 44 42 43 48 53 56 59 63 65 65 67 71 72 66 62 61 60 58 59 58 55 52 49 45 39 34 31 27 23 19 15 12 9 7 5 5 4 7 14 22 28 33 39 46 54 58 55 43 30 27 32 36 36 34 33 33 36 40 40 38 37 37 38 41 45 49 56 65 74 81 85 86 86 85 86 88 87 86 80
34 37 41 45 46 47 50 52 50 49 54 60 60 60 66 69 65 64 70 72 67 65 65 64 62 61 60 58 55 52 49 44 39 35 30 26 22 18 15 12 8 6 5 4 4 7 15 22 29 35 40 46 55 62 58 44 32 29 31 34 35 36 35 32 32 34 34 34 34 33 33 36 40 44 51 62 75 82 84 86 87 85 82 82 86 91
35 37 41 45 47 49 51 55 58 59 62 66 66 65 66 70 71 71 72 73 73 73 70 68 66 64 61 60 57 55 52 49 44 39 34 29 25 21 17 14 11 8 6 5 4 4 7 14 22 30 36 40 47 56 64 61 47 35 31 30 31 36 40 41 42 43 43 45 43 38 33 32 34 39 42 48 61 73 80 83 85 85 82 77 79 87
35 38 42 45 48 51 52 54 58 63 65 66 70 71 69 72 78 81 79 79 80 79 75 72 70 67 64 62 60 58 56 53 48 43 38 33 28 24 20 17 14 10 8 6 5 4 4 7 13 21 29 35 39 45 55 64 63 52 39 31 29 31 35 43 53 58 59 58 56 51 44 35 33 38 42 43 49 58 66 70 74 78 82 81 82 90
35 39 44 47 48 52 55 53 54 60 64 64 69 75 77 78 82 83 83 85 84 82 80 76 73 71 67 65 63 61 59 57 52 47 42 37 32 27 23 19 16 13 10 7 6 5 4 4 7 13 21 29 35 40 45 54 63 65 57 43 33 29 29 36 48 59 64 63 61 60 56 45 39 42 46 47 51 55 56 57 59 63 70 74 78 87
36 39 45 50 51 54 57 57 55 59 65 67 70 76 80 82 82 81 83 87 88 86 84 80 76 74 71 68 66 63 61 59 56 52 47 42 36 31 26 22 19 15 13 10 7 6 5 4 4 7 12 19 28 37 42 45 51 62 67 63 51 37 28 28 35 46 56 60 58 58 59 55 48 49 53 55 57 59 58 57 55 55 59 64 68 74
39 42 49 56 60 61 64 66 65 66 69 70 71 74 77 80 81 82 84 87 88 88 87 84 79 76 74 72 69 66 63 62 59 56 52 46 41 35 30 26 22 19 15 12 10 8 6 5 4 4 6 9 16 27 36 41 45 51 59 67 68 59 44 32 28 32 42 51 54 53 55 58 55 54 56 58 59 61 60 58 57 56 55 57 60 64
41 45 52 60 67 71 72 73 72 69 68 68 69 71 73 75 80 84 86 88 89 90 90 87 83 80 77 75 72 68 66 64 62 59 56 51 45 40 35 30 26 22 18 15 12 10 7 6 6 4 4 5 7 13 22 31 39 45 48 55 64 71 68 56 41 32 30 37 46 50 52 57 58 57 57 57 59 62 62 62 64 65 63 61 62 63
41 46 51 56 64 70 73 73 71 68 66 66 67 69 71 74 78 82 87 90 91 92 92 91 88 84 81 78 75 72 69 66 64 62 60 57 51 45 40 35 30 25 22 18 15 12 9 8 6 5 5 4 4 5 10 16 25 34 42 47 51 60 69 72 67 56 43 34 34 38 42 47 52 56 59 59 57 57 58 60 65 69 70 71 70 68
42 45 49 54 60 67 70 72 72 70 67 67 67 69 71 73 76 80 86 91 94 95 96 95 93 89 85 82 79 75 72 69 67 65 63 61 57 51 45 39 35 30 25 22 18 15 12 9 7 6 5 5 4 4 5 7 12 19 29 40 47 49 54 63 70 74 70 59 47 39 36 36 39 44 50 56 58 58 58 58 60 61 63 66 68 67
42 44 48 53 59 63 66 69 71 72 71 70 71 72 73 75 79 83 87 91 95 98 99 99 97 95 91 86 82 78 75 72 69 67 66 64 61 57 51 45 40 35 30 26 22 18 15 12 10 8 6 5 5 4 4 5 6 8 13 25 39 48 51 53 57 64 72 76 73 66 56 49 43 39 39 42 47 52 56 58 59 60 59 58 58 58
45 46 49 54 57 59 60 62 64 66 68 68 70 72 75 78 82 87 90 93 96 98 100 101 101 98 95 91 87 83 79 75 72 70 68 66 65 62 57 51 45 40 35 30 25 22 18 15 12 10 8 7 5 4 4 4 4 5 6 10 22 37 48 53 55 56 60 66 72 77 78 75 70 65 59 53 49 48 48 49 51 52 53 53 52 50
49 48 50 54 56 58 60 61 61 62 63 63 64 67 71 76 82 87 90 94 97 99 100 101 102 100 99 96 91 87 83 79 76 73 71 68 67 65 62 57 51 45 40 35 30 26 22 19 16 13 10 9 7 5 5 5 4 4 4 5 8 18 32 46 56 59 60 61 63 67 72 77 81 84 85 82 78 72 63 57 52 49 47 45 43 40
54 53 53 54 56 59 61 62 62 62 63 62 62 63 66 71 78 83 86 91 97 101 101 102 102 101 100 98 95 91 87 84 80 78 75 71 69 67 65 61 57 51 45 40 35 30 26 22 19 16 13 11 9 7 6 5 5 4 4 4 5 6 14 29 45 58 66 69 68 67 68 70 73 79 84 88 91 92 88 79 70 64 61 59 56 53
Wind_Speed
38 39 41 43 46 47 48 50 52 54 56 58 61 63 67 70 71 72 76 78 83 85 84 82 78 75 76 73 66 58 52 48 44 43 43 44 45 45 43 43 44 43 43 43 43 43 44 44 45 45 44 45 47 50 53 54 54 55 56 56 59 64 66 68 70 70 71 71 70 69 68 70 72 74 75 76 76 76 77 78 79 82 85 87 89 90
38 40 43 46 47 47 49 51 52 55 57 59 61 63 66 70 71 73 76 77 80 85 86 84 81 80 81 76 68 61 56 52 46 43 42 41 42 42 42 43 44 45 45 46 46 47 48 48 49 49 49 49 48 49 51 54 55 57 57 58 60 65 69 71 72 73 74 75 76 75 73 72 73 75 78 79 79 79 79 80 80 81 83 86 88 90
39 41 43 45 46 48 50 51 53 55 57 59 62 64 66 70 72 74 77 77 79 85 88 87 86 86 86 79 71 67 61 58 54 50 47 44 42 42 43 44 46 47 48 49 50 51 52 53 53 54 54 55 54 54 54 55 57 59 60 61 62 65 69 72 74 75 76 76 78 79 79 79 78 79 80 82 83 83 83 82 82 83 84 85 87 89
40 42 44 46 47 49 51 53 55 55 57 60 62 65 67 71 73 76 79 78 79 86 89 90 88 88 90 83 75 71 65 63 59 54 53 50 45 43 44 46 47 49 50 52 53 55 56 58 59 60 60 60 61 61 60 61 62 63 65 67 68 70 71 73 76 78 80 80 81 82 83 83 83 84 84 84 85 86 87 87 86 86 86 87 88 89
42 43 45 47 49 51 52 54 55 57 59 61 63 66 69 71 73 76 80 80 82 88 90 92 90 87 88 84 78 73 67 65 61 55 55 52 47 44 44 46 48 50 52 54 56 58 60 61 62 63 64 65 65 65 65 66 67 68 70 72 74 76 77 79 81 83 86 87 88 88 88 88 88 88 88 89 89 89 90 90 91 91 91 90 91 91
42 44 45 48 49 51 53 54 57 59 61 63 65 67 69 72 73 75 80 81 84 90 91 93 91 87 86 84 79 73 66 65 63 59 58 54 49 45 43 45 47 50 53 56 58 59 60 61 62 63 64 64 64 64 65 66 67 69 71 73 75 78 81 83 86 88 91 92 93 94 94 93 93 93 93 93 93 93 93 94 94 94 95 95 94 94
43 44 46 48 50 52 54 56 59 61 62 64 65 67 70 71 72 75 79 82 84 89 91 92 90 87 86 85 79 73 67 66 65 62 61 58 54 50 47 46 46 48 52 54 55 56 56 55 55 54 53 54 55 55 56 57 58 59 61 63 66 70 74 78 83 88 92 95 96 97 97 97 98 98 97 97 96 96 97 97 98 99 99 98 98 97
44 45 46 48 50 53 55 58 60 62 63 65 66 68 70 71 71 75 79 82 84 88 91 91 89 87 87 85 80 74 70 69 66 64 63 61 59 58 55 53 51 50 49 48 47 46 45 44 43 44 44 45 47 47 48 49 50 50 50 51 52 56 60 64 70 76 82 88 93 96 98 99 100 101 101 100 100 99 99 100 100 101 102 102 101 100
45 45 47 48 50 53 57 59 61 63 65 66 66 67 69 70 71 74 79 81 83 88 89 88 88 87 87 85 80 75 73 70 67 66 64 63 62 61 58 55 51 47 42 38 37 36 37 39 41 43 45 47 48 48 49 49 50 50 49 48 48 50 52 55 58 62 66 71 77 83 88 93 97 100 102 102 102 102 102 102 101 101 102 103 103 103
46 46 48 49 51 54 57 59 62 64 65 67 67 68 68 70 71 73 77 80 83 87 88 87 87 86 86 84 79 76 74 71 68 67 65 64 62 60 57 53 48 42 36 33 33 35 38 42 44 46 47 48 49 49 49 50 50 50 48 46 47 48 48 49 51 52 54 56 59 63 68 74 81 89 95 99 101 102 103 104 104 103 103 103 104 105
46 47 48 50 52 54 56 59 62 65 67 68 69 69 70 72 73 73 76 80 81 83 85 87 88 86 84 83 80 77 75 72 69 67 65 63 59 57 54 50 45 39 35 34 36 39 42 44 45 46 47 47 47 47 47 47 47 47 46 43 44 45 44 44 44 44 45 47 49 51 53 56 61 69 77 84 91 96 100 102 104 104 105 105 105 106
46 47 49 51 53 55 56 59 62 65 68 69 69 71 73 74 76 76 77 81 80 80 84 88 88 86 85 84 82 79 76 73 70 67 65 63 59 56 52 47 43 39 37 38 41 43 44 44 45 45 45 45 45 44 44 44 44 44 43 41 40 42 42 41 41 40 39 39 41 42 44 46 48 52 58 65 72 79 86 92 96 99 102 104 106 108
45 47 49 51 53 55 57 59 62 65 68 69 70 72 76 78 80 79 80 82 79 78 84 88 88 87 86 84 82 80 78 75 71 68 65 62 59 54 50 46 42 40 40 42 44 45 44 45 45 45 45 45 44 42 41 41 41 41 40 39 38 39 39 39 39 39 38 36 36 35 36 38 40 42 45 49 54 60 66 73 79 85 90 95 100 104
45 46 48 51 53 56 58 60 63 67 69 71 73 75 78 80 81 80 81 83 81 79 83 87 88 88 88 86 83 81 80 77 72 67 63 59 56 52 49 47 45 44 44 44 44 43 43 44 44 44 44 44 43 41 38 38 38 38 38 36 36 38 38 39 39 38 37 36 34 33 32 32 33 35 37 39 42 46 50 55 60 66 73 79 85 91
47 47 48 51 54 57 60 62 65 69 70 72 73 75 77 78 80 78 78 81 82 80 82 86 88 89 89 86 84 83 81 78 72 66 60 55 52 50 48 47 46 45 44 44 43 43 43 44 45 44 43 43 42 39 36 35 36 37 36 34 34 35 37 38 38 37 36 35 34 33 33 32 31 31 32 33 35 38 40 43 46 50 56 61 67 73
47 49 49 51 54 58 61 62 65 68 71 72 73 74 75 75 76 76 75 78 80 78 79 84 87 88 90 87 85 85 82 77 71 64 59 55 51 49 48 48 47 45 43 42 43 43 44 45 45 45 44 43 42 39 36 34 35 35 35 33 32 32 33 34 34 33 33 33 33 33 33 33 32 32 31 31 32 33 35 37 38 40 43 47 52 58
47 48 49 51 54 58 60 62 65 67 70 72 72 73 73 72 73 74 75 77 79 77 77 82 87 88 89 88 86 86 83 77 71 65 61 57 52 49 49 47 45 43 41 41 43 45 45 45 46 46 45 44 42 40 37 35 34 33 33 32 31 30 30 30 31 31 32 32 32 33 33 32 32 32 32 32 31 31 31 32 33 34 36 38 41 45
48 48 50 51 54 57 59 61 64 67 70 72 73 73 72 72 73 74 76 78 80 79 78 80 85 88 87 87 87 86 85 81 74 67 62 58 54 51 49 47 43 41 40 41 43 45 47 48 48 47 46 45 43 41 38 36 34 32 31 31 30 30 30 30 31 32 32 32 32 32 32 32 31 31 30 30 31 31 30 29 29 29 30 31 34 36
49 49 50 52 53 56 59 61 64 67 70 71 72 71 70 72 72 72 75 77 79 81 81 79 83 87 87 88 88 86 85 84 78 71 65 60 57 53 50 47 43 39 39 41 43 45 47 49 50 50 48 47 44 41 38 36 34 33 32 32 32 32 32 32 32 32 32 32 32 32 32 32 32 31 30 29 29 29 29 28 26 25 25 26 27 28
51 50 50 52 53 55 58 61 64 67 70 71 72 71 70 69 70 72 73 74 75 79 82 82 83 86 88 88 87 84 84 85 81 74 68 62 58 55 51 47 43 39 39 41 44 47 49 51 53 53 51 49 46 42 39 36 35 35 34 34 33 33 33 32 32 31 31 31 31 31 32 32 32 32 31 30 28 27 27 26 24 21 20 19 20 22
52 51 50 51 52 55 57 60 63 67 70 72 72 72 70 69 70 72 72 72 74 77 80 82 83 85 87 87 86 84 83 84 82 76 69 63 59 55 52 48 44 40 39 41 45 47 50 53 54 54 52 50 46 43 40 37 36 35 35 34 33 32 32 32 31 31 30 30 30 31 31 32 32 32 31 30 28 26 25 24 22 19 16 14 13 14
52 52 51 50 51 54 56 59 63 66 68 70 71 70 69 69 69 71 71 71 73 75 78 80 82 84 87 87 86 84 84 84 83 78 71 64 59 55 52 49 45 42 41 42 45 47 51 54 55 54 52 49 46 43 40 37 35 34 33 32 33 33 32 32 31 31 30 30 30 31 32 33 33 32 31 29 27 25 23 22 21 18 15 12 9 7
52 53 52 51 51 53 57 59 62 65 66 66 68 69 68 68 68 70 71 71 71 74 76 77 79 82 85 86 85 84 84 83 83 80 72 65 60 56 53 50 46 44 43 43 45 47 51 54 55 54 52 50 46 43 39 37 35 34 33 33 34 34 33 33 32 31 30 30 30 31 32 33 33 33 31 29 26 24 21 19 19 17 14 11 8 5
52 53 53 51 49 51 54 57 59 62 63 64 66 68 68 68 69 69 70 71 70 72 75 77 76 78 82 83 83 84 84 83 82 80 75 68 61 57 53 50 48 45 44 44 45 47 51 54 55 54 52 50 46 42 39 36 35 34 34 34 34 34 33 32 31 30 30 30 30 31 32 32 33 33 32 29 26 23 19 16 16 15 13 11 9 6
51 53 53 52 49 50 53 56 58 60 62 63 65 68 69 69 69 70 70 71 71 71 73 76 75 75 78 81 82 83 84 84 82 80 77 72 65 59 55 51 48 46 44 43 44 47 50 53 53 52 52 50 46 42 38 35 33 32 33 33 34 33 32 31 30 30 30 30 29 30 30 31 32 33 33 31 27 23 18 14 12 12 12 11 10 8
50 51 53 53 52 53 55 57 59 60 61 63 64 67 69 69 69 69 70 71 71 70 69 72 74 73 75 79 81 82 85 85 84 81 78 74 68 62 57 52 49 46 44 43 44 46 49 51 52 52 52 50 47 42 39 36 33 31 31 32 33 32 31 30 30 29 29 29 28 28 29 30 32 33 33 33 30 25 19 14 10 8 8 9 9 9
49 50 51 52 52 53 55 56 57 59 60 62 63 65 69 70 69 69 69 69 71 70 68 69 72 73 75 78 81 82 84 86 86 84 80 76 70 64 59 54 50 47 45 45 44 45 48 50 50 50 51 51 48 44 41 38 35 32 31 31 31 31 30 29 29 29 29 28 28 28 28 29 30 32 33 33 31 28 22 16 11 6 4 6 7 8
49 49 50 50 50 51 53 54 55 58 59 60 62 64 67 70 69 68 68 68 69 70 68 67 69 72 75 79 81 83 84 86 86 86 83 78 73 67 61 55 51 49 47 45 45 45 46 48 49 49 51 51 48 45 42 40 38 35 33 31 30 30 30 29 28 29 28 28 28 27 27 28 28 29 30 31 31 29 25 20 15 10 5 2 3 5
49 49 49 49 49 50 52 53 54 57 58 59 61 63 66 69 69 68 67 67 66 66 66 66 68 70 74 77 80 82 84 85 86 86 85 82 76 71 64 58 54 51 48 46 45 45 46 47 48 48 49 50 48 45 43 41 39 36 34 33 31 31 31 30 29 29 29 29 28 27 27 27 27 27 27 28 29 28 27 23 19 14 9 5 2 1
49 50 49 48 47 48 51 52 53 56 57 59 61 64 64 67 69 68 67 67 65 63 64 65 66 68 71 74 77 79 81 83 85 86 86 83 79 74 67 62 57 53 49 47 45 45 45 46 47 47 47 49 48 44 41 39 38 37 36 35 34 34 33 33 32 31 31 31 30 29 28 27 27 27 26 26 26 26 26 24 21 17 13 9 6 3
50 50 50 47 46 47 49 51 53 55 57 59 62 64 64 65 68 69 67 67 66 64 64 64 64 66 68 71 73 76 78 80 82 83 84 83 81 76 71 66 61 55 51 48 46 45 45 45 45 45 45 46 46 43 40 37 36 36 36 35 35 35 35 34 33 33 33 33 32 31 30 29 28 27 26 25 24 24 23 23 21 19 16 12 9 6
50 50 50 48 45 46 48 50 52 54 57 59 61 63 63 64 67 69 68 66 65 65 65 64 64 66 67 69 71 73 75 77 79 81 82 82 81 78 75 70 64 58 53 49 46 45 44 44 43 43 43 44 44 42 39 37 35 35 35 35 35 35 35 34 33 33 33 33 33 32 31 30 29 28 27 26 25 23 22 21 20 18 17 14 12 9
50 51 50 48 46 45 47 49 51 53 57 60 60 61 63 63 64 66 67 66 66 66 66 66 66 67 67 68 70 72 73 75 77 79 81 82 81 80 78 73 67 61 55 51 47 45 44 43 42 42 42 42 42 41 39 37 35 33 33 33 34 34 34 33 33 33 33 33 33 32 31 30 29 28 27 27 26 24 23 21 19 17 15 14 12 10
50 51 50 48 46 45 46 48 50 53 57 59 60 61 63 63 63 64 66 66 66 66 65 66 67 68 67 67 68 71 73 74 76 79 81 82 82 81 80 76 71 64 59 54 50 46 44 43 42 41 40 40 40 40 39 37 35 33 30 30 31 33 33 33 33 33 33 32 32 32 31 30 28 27 27 26 25 25 23 22 20 18 15 13 12 10
50 51 50 48 46 45 45 47 49 52 56 58 60 62 63 63 62 62 63 65 66 66 65 66 67 67 67 66 66 69 72 73 75 77 79 80 81 82 81 78 74 68 62 57 53 48 45 43 42 41 39 38 38 38 38 36 35 32 30 28 29 31 31 32 32 32 32 32 32 31 31 30 28 26 25 25 24 24 23 22 21 19 17 15 14 12
50 51 50 48 46 46 46 48 49 52 54 58 60 62 63 63 62 62 63 64 65 65 66 67 67 67 67 66 66 67 69 72 73 75 76 78 80 81 81 79 76 71 66 61 56 51 48 45 43 41 39 37 37 37 36 35 34 33 30 27 26 27 29 30 31 32 32 33 33 32 31 30 28 27 25 24 24 23 23 22 21 19 18 17 16 14
50 51 51 49 47 46 46 47 49 50 53 57 59 61 63 63 63 62 63 63 64 65 66 67 66 66 66 66 66 66 67 70 71 72 74 76 78 79 80 79 77 74 69 63 58 53 50 47 44 42 40 38 36 35 35 35 34 33 31 29 27 25 26 27 29 30 32 32 33 32 32 30 29 27 26 24 24 23 22 22 21 20 18 17 17 16
50 51 51 49 47 47 47 48 49 51 54 57 58 60 62 63 64 63 62 62 64 66 67 66 66 65 65 65 66 66 66 67 69 71 72 74 76 77 78 78 77 75 72 67 61 55 51 48 46 43 41 39 37 34 33 33 33 32 32 30 28 26 25 26 27 28 29 30 31 31 31 30 29 28 27 25 24 23 22 22 22 21 19 18 18 17
50 50 50 48 47 47 47 48 51 53 54 56 58 60 61 62 64 65 63 63 65 67 66 66 66 66 65 64 65 65 65 65 66 68 70 71 73 75 76 77 77 76 74 71 66 59 53 49 46 44 42 40 38 35 33 31 31 31 31 31 29 28 27 26 26 27 27 28 28 28 28 29 29 28 27 26 24 23 22 22 22 22 21 19 19 18
50 50 50 49 47 47 47 48 50 52 54 56 58 60 61 62 64 65 65 65 65 66 65 65 65 65 65 64 64 64 65 65 65 66 68 69 71 72 74 75 76 75 74 73 70 65 58 51 47 44 42 41 39 37 34 31 30 29 29 29 29 28 27 27 26 27 27 26 26 26 25 26 26 26 26 26 24 23 21 20 20 21 21 21 20 19
49 50 50 49 48 47 48 48 49 51 53 56 57 59 61 62 63 64 65 66 65 64 64 65 64 64 64 65 64 64 64 64 65 65 66 67 69 70 72 73 75 75 75 73 71 68 63 56 50 46 43 41 39 38 35 33 30 28 27 27 27 27 27 26 26 26 26 26 26 25 24 23 23 23 24 24 23 22 21 20 18 18 19 19 20 20
49 49 50 50 49 48 48 49 50 51 53 55 57 58 60 62 62 63 65 65 65 64 64 64 64 64 64 64 64 64 63 63 63 64 64 65 67 68 70 72 73 74 74 73 72 70 67 62 55 50 45 42 40 38 37 35 32 30 27 26 26 25 25 25 25 24 24 25 25 24 24 23 22 21 21 21 21 21 20 19 18 17 17 17 18 18
49 49 50 50 49 48 48 49 52 53 54 56 57 58 60 61 62 63 64 65 65 64 64 64 64 64 64 64 64 64 63 63 62 62 63 64 65 67 68 69 71 72 73 73 72 71 69 66 61 55 49 45 41 39 37 36 34 32 29 27 26 25 24 24 23 23 23 23 23 23 23 23 23 22 21 21 20 20 19 19 18 17 17 17 17 17
48 49 49 49 48 47 47 49 52 53 54 55 57 58 60 61 62 63 64 65 65 65 64 64 64 64 64 64 63 63 63 63 62 61 62 62 63 65 66 68 69 70 71 72 72 72 70 69 66 61 55 49 45 41 38 37 36 34 32 29 27 26 25 24 23 23 22 22 22 22 22 22 22 22 22 21 21 20 20 19 19 19 18 17 17 18
47 47 48 47 46 46 46 48 50 52 53 55 56 58 60 61 62 63 64 65 66 66 65 64 64 64 64 63 63 63 62 62 62 61 61 61 62 63 64 66 67 69 70 70 71 71 71 70 69 66 61 55 50 45 41 39 37 35 34 32 30 28 26 25 24 24 23 22 22 22 22 21 21 21 21 21 21 20 20 20 20 19 19 18 18 18
46 46 47 47 46 45 45 47 49 51 53 54 56 58 59 61 62 63 64 65 65 66 65 65 64 64 64 64 63 63 62 62 62 61 60 60 60 61 62 64 66 67 68 69 70 70 70 70 69 68 65 61 56 51 46 42 39 37 35 33 32 30 28 27 25 25 24 24 23 23 23 22 20 20 20 21 21 20 20 20 20 20 20 19 19 18
46 46 47 47 47 47 46 47 48 50 52 54 56 57 59 60 61 62 63 64 65 66 66 66 65 64 64 64 64 63 62 61 61 61 60 59 59 60 61 62 63 65 66 67 68 69 69 69 69 68 67 64 60 55 50 47 43 40 37 34 33 32 30 28 27 26 25 25 25 25 25 25 23 22 21 21 22 22 21 21 21 20 20 20 20 20
46 46 46 47 48 48 48 48 49 50 52 54 55 57 58 59 60 61 63 64 65 66 66 66 66 65 64 65 64 63 62 62 61 61 60 59 58 58 59 60 61 63 64 65 66 67 67 68 68 67 67 65 62 58 54 50 47 44 41 37 35 33 31 30 29 27 26 25 24 25 26 26 26 26 24 24 23 24 24 24 23 22 22 22 22 21
46 46 47 47 47 48 49 50 50 50 52 53 54 56 57 59 60 61 62 63 64 65 66 66 66 66 65 65 65 64 63 62 61 60 60 59 57 57 57 58 59 60 61 63 64 65 65 66 67 67 66 65 63 60 57 54 50 47 44 41 38 35 33 32 30 29 28 27 26 25 25 25 26 27 27 27 26 26 25 26 26 25 25 24 24 24
46 46 47 47 48 49 50 51 51 51 52 54 55 56 57 58 60 61 62 63 64 65 66 66 67 67 67 66 65 64 63 62 61 60 60 59 58 57 56 57 57 58 60 61 62 63 64 64 65 66 66 66 65 63 60 56 53 50 48 45 41 37 35 33 31 31 30 29 28 27 26 25 25 26 27 28 28 28 27 26 25 25 25 26 26 27
46 47 47 48 48 48 49 50 51 52 53 54 55 56 57 58 60 61 62 63 63 64 65 66 67 68 68 67 65 64 63 62 61 60 59 59 58 57 56 56 56 56 58 59 60 62 62 63 64 65 65 66 65 65 63 59 56 53 51 48 45 41 37 34 32 31 30 30 30 29 28 27 26 26 26 27 27 28 29 28 27 26 25 24 25 25
Wind_Direction
353 352 350 350 352 353 352 352 352 352 353 353 354 357 357 357 359 360 0 360 358 359 357 353 350 348 345 343 342 339 337 334 329 324 319 312 305 300 299 299 297 296 296 296 296 296 294 292 289 286 281 275 271 268 266 265 265 266 270 271 267 266 268 267 265 261 259 257 255 254 252 250 247 246 244 244 243 243 242 242 242 243 244 244 244 244
353 352 351 353 353 353 354 353 353 353 353 353 354 355 355 354 357 359 1 1 360 359 358 355 352 350 349 348 346 344 344 343 338 333 329 320 309 301 298 297 296 296 296 296 297 296 296 295 293 290 287 283 278 274 271 269 269 269 272 274 273 272 272 271 270 268 266 264 261 259 256 253 251 250 248 246 245 244 243 243 242 242 242 242 243 243
353 353 353 354 354 354 355 354 354 354 354 353 352 353 354 354 355 358 1 2 1 360 359 357 353 352 352 352 349 349 348 346 343 340 337 330 318 308 300 297 295 295 295 295 295 295 295 294 292 291 288 286 283 279 275 272 270 269 269 271 271 271 271 271 271 271 270 268 267 264 262 259 256 254 252 250 249 247 245 245 244 243 243 242 241 241
354 355 355 355 354 355 355 355 355 355 353 352 351 352 354 356 357 358 1 3 2 0 360 359 356 353 353 354 352 351 350 348 346 341 337 333 326 317 308 302 298 297 295 294 293 292 291 290 289 289 288 286 285 282 280 277 274 271 269 268 268 268 267 268 268 268 268 267 265 265 264 262 260 257 255 253 252 250 248 247 246 245 244 243 242 241
355 356 356 355 355 355 355 355 354 353 352 352 353 354 355 358 359 0 2 2 2 1 0 0 359 355 354 355 353 352 350 347 344 340 336 333 329 322 314 307 303 300 298 295 293 291 290 289 289 289 288 287 286 284 283 281 279 277 274 273 271 270 269 267 267 266 265 263 262 261 261 261 260 259 257 255 254 252 251 250 249 247 246 245 244 242
356 357 356 356 355 355 355 354 353 353 353 353 354 355 357 359 0 2 2 1 1 2 1 1 1 358 355 356 355 353 348 344 343 340 337 335 331 325 317 310 304 299 297 294 293 291 290 289 288 288 288 287 287 286 285 283 281 279 277 276 275 274 272 271 270 269 268 266 264 263 262 261 260 259 258 257 255 254 253 252 251 250 248 246 245 244
357 357 357 356 355 354 354 354 353 353 353 354 355 356 358 0 1 2 3 2 1 2 2 1 0 359 357 357 355 353 348 344 343 340 338 336 334 331 326 319 312 305 301 298 296 295 294 294 294 294 294 293 291 290 289 287 285 283 281 280 279 278 276 274 272 270 269 268 267 266 265 264 263 262 260 259 258 256 255 253 252 251 250 248 247 245
356 356 356 356 355 354 354 354 354 353 354 355 356 357 359 1 2 2 2 2 1 2 3 3 1 360 358 357 356 353 349 346 344 341 339 338 338 335 330 325 320 315 310 306 305 305 306 307 307 306 305 302 299 297 295 293 292 291 290 290 290 288 285 282 277 273 271 269 267 266 265 264 264 263 262 261 260 258 257 256 254 253 252 251 249 248
356 356 356 355 355 354 354 354 354 354 354 355 356 358 359 1 2 2 2 2 1 3 5 3 1 1 359 357 356 353 350 348 345 342 341 341 339 336 331 327 324 321 319 316 315 316 316 316 314 311 309 306 304 303 301 298 297 295 295 296 298 298 296 293 288 282 278 274 271 268 266 264 263 262 262 261 261 260 258 257 256 254 254 253 251 250
355 355 355 355 355 355 355 354 354 354 355 355 356 357 358 359 1 2 3 2 3 5 6 4 2 1 359 357 355 352 350 349 346 344 344 343 340 337 334 332 330 328 327 324 323 322 320 318 315 312 310 309 308 307 305 304 302 299 297 297 300 303 304 303 298 293 288 284 279 275 271 267 265 263 262 261 260 259 258 257 256 254 254 253 252 251
354 354 354 354 355 356 356 354 354 355 355 355 355 356 357 358 359 2 5 5 6 7 6 5 4 2 359 358 355 353 351 349 348 347 346 344 342 341 339 336 334 333 330 328 325 323 321 318 316 315 314 312 311 310 309 308 306 303 299 298 300 304 307 309 308 304 298 293 288 284 279 275 270 266 264 262 261 260 259 258 256 255 254 253 252 252
353 353 353 354 355 356 356 355 355 355 355 355 355 355 356 357 359 2 7 10 10 8 6 5 4 2 1 359 356 354 353 351 350 349 347 345 344 344 342 340 337 335 332 329 326 325 324 322 321 320 319 316 314 312 310 309 309 307 302 299 301 304 308 311 314 314 311 305 299 294 289 284 279 274 270 266 263 262 260 259 258 256 255 253 252 252
353 352 353 354 354 355 355 355 355 355 355 355 355 356 357 359 2 4 8 13 14 9 6 5 4 3 2 0 358 356 354 353 352 350 347 345 344 345 343 341 339 336 333 331 330 330 329 327 326 326 324 321 317 314 310 309 311 312 307 301 300 303 306 309 313 315 316 315 313 308 302 295 290 285 280 275 270 267 264 262 260 258 256 254 253 251
352 352 352 353 354 354 355 356 355 356 357 357 358 360 1 2 4 5 7 12 15 11 7 6 5 4 3 1 359 357 355 355 354 352 348 345 343 344 342 341 340 337 335 334 334 334 332 330 331 330 329 327 324 319 314 312 314 317 314 307 301 301 305 308 311 312 313 314 315 315 313 308 303 296 290 285 280 275 271 267 264 261 259 256 254 253
351 352 353 353 353 354 355 357 357 358 359 0 1 2 4 4 4 5 6 8 12 12 8 7 6 4 3 3 360 358 357 356 355 352 349 347 344 343 342 341 340 339 338 338 338 338 337 336 336 335 334 334 332 327 320 316 317 319 320 316 307 304 306 309 311 312 313 313 314 315 315 315 313 309 304 297 290 285 280 275 271 267 263 260 257 254
352 351 352 353 353 354 355 357 358 359 360 1 2 3 5 5 5 6 6 6 9 11 9 7 7 6 5 4 1 359 359 357 355 353 350 349 348 345 343 342 341 342 343 342 341 342 342 340 340 339 339 340 339 336 329 323 320 321 323 322 317 313 311 313 314 316 317 318 318 318 317 316 315 314 312 309 303 296 289 284 279 274 270 265 260 256
353 352 352 352 353 354 355 357 359 360 0 1 3 4 4 5 6 6 6 7 9 12 10 7 7 7 6 5 3 2 1 359 357 355 353 352 350 347 345 344 344 345 346 346 345 345 345 344 343 343 342 342 341 340 338 332 327 325 325 325 325 323 322 322 323 323 324 324 324 324 323 321 319 316 314 312 311 308 302 294 287 281 276 271 266 261
354 352 352 352 353 354 355 357 359 0 1 1 3 4 4 4 6 6 5 6 9 12 13 8 6 6 5 4 4 3 2 2 0 358 356 354 352 350 349 347 347 348 349 349 348 348 348 347 346 345 343 342 341 341 341 339 336 334 333 332 332 331 330 329 328 327 326 326 327 327 326 325 323 320 317 313 311 311 311 306 298 290 283 276 271 266
354 353 352 353 354 355 355 357 359 0 1 2 3 4 4 4 6 6 5 6 8 11 13 11 7 6 5 4 4 3 1 2 2 0 358 357 355 354 353 351 351 351 350 350 350 350 350 349 347 346 345 343 342 341 341 341 340 339 338 337 336 334 332 330 329 328 327 328 328 329 329 329 327 325 322 318 313 311 313 314 310 302 292 283 276 270
354 354 353 354 354 356 356 357 359 0 1 2 3 5 5 5 5 7 7 6 6 9 11 11 9 6 5 4 4 3 1 1 2 1 360 358 357 356 355 353 352 351 350 349 350 351 351 350 349 348 347 345 342 341 340 340 339 338 338 337 337 336 335 334 334 333 333 333 333 334 334 333 332 329 326 323 318 313 312 315 317 314 305 293 282 272
354 354 354 354 355 356 357 358 360 1 1 2 3 4 5 6 6 7 8 6 6 7 9 9 9 7 5 4 4 3 1 1 2 2 1 360 358 357 356 355 353 351 350 349 350 350 350 350 350 350 349 347 344 342 341 341 340 340 340 341 343 344 343 342 341 340 340 340 340 340 340 339 337 334 330 326 321 316 311 311 316 320 319 311 295 278
353 354 354 355 356 356 357 359 0 1 2 2 2 3 4 6 6 8 10 10 7 7 8 8 7 7 6 5 4 3 2 2 3 3 2 1 359 358 357 356 354 351 350 350 349 348 349 350 351 351 351 349 347 346 345 345 345 345 346 347 348 349 349 348 347 346 345 345 346 346 346 345 343 340 336 331 326 320 312 308 310 315 320 323 319 300
352 353 354 355 356 357 358 360 1 1 2 2 1 2 4 6 7 8 10 12 10 8 10 10 7 6 6 6 5 4 3 3 3 4 4 3 1 1 359 358 356 353 351 349 347 347 349 350 352 353 353 352 350 349 348 349 349 349 349 350 351 351 351 351 350 350 350 350 351 351 351 350 348 345 341 336 331 325 317 308 304 307 312 316 321 322
352 353 354 355 356 357 358 360 1 1 1 2 1 2 4 6 8 8 9 12 12 9 9 12 10 6 5 6 6 5 5 4 3 4 5 5 4 3 2 360 358 355 352 348 347 348 350 352 353 354 354 353 352 350 348 348 349 350 351 352 352 352 353 353 353 354 355 355 355 355 355 355 353 351 348 343 337 330 323 313 302 299 301 304 307 310
353 353 353 353 354 357 358 359 2 2 1 2 2 2 4 7 8 9 9 11 13 12 8 10 11 8 6 7 7 7 6 6 5 5 5 5 5 5 4 2 0 357 353 349 349 350 352 353 354 355 356 355 355 353 349 347 347 349 351 352 352 353 355 356 357 359 359 358 358 359 359 359 359 358 357 354 348 340 332 323 307 294 292 292 292 291
354 353 353 353 354 356 359 360 2 3 2 2 3 2 4 7 8 8 9 10 13 13 10 8 10 10 9 9 10 9 8 8 7 7 6 6 6 6 5 4 2 358 355 353 353 353 353 354 355 357 358 359 359 359 356 354 351 351 352 353 353 355 358 360 1 3 3 2 2 3 3 4 5 6 5 4 2 358 352 344 330 302 283 280 277 273
355 354 354 354 355 356 359 0 1 2 2 2 3 3 4 6 8 8 9 10 11 13 12 8 8 9 10 11 11 11 10 9 9 8 8 7 7 7 6 5 2 359 357 357 356 355 354 355 357 359 0 2 4 5 5 4 2 359 357 356 357 359 3 4 5 7 7 7 6 6 7 9 10 10 11 12 12 12 10 6 2 345 294 270 264 258
354 356 355 354 355 356 358 360 0 1 2 2 2 4 4 5 7 8 9 10 10 12 13 10 7 8 9 9 10 11 10 10 9 9 9 9 8 8 8 6 3 1 0 359 358 356 355 356 358 1 3 5 7 9 10 10 9 7 5 4 4 6 8 8 9 10 11 11 11 11 11 11 12 13 14 15 17 20 21 21 20 20 17 314 263 252
354 356 356 355 355 356 358 359 360 1 2 1 2 5 5 4 6 8 9 9 10 10 12 12 9 8 9 10 10 10 9 9 9 9 9 9 9 9 8 7 5 4 3 1 359 358 357 357 359 2 5 8 10 13 14 15 15 15 15 14 14 15 16 14 13 14 14 14 14 14 14 14 15 15 16 17 20 23 27 29 30 32 37 43 40 273
353 355 357 357 356 357 358 359 360 0 1 2 3 4 4 3 5 7 8 8 9 9 10 12 11 10 9 10 11 11 9 9 9 9 9 9 9 9 9 8 8 7 5 3 0 359 359 359 360 3 6 10 13 16 18 19 20 20 21 21 22 23 23 22 20 19 18 19 18 18 18 18 17 17 17 18 21 24 28 31 33 36 40 43 47 43
353 354 357 358 357 358 358 358 360 0 1 3 4 4 4 3 4 6 7 7 8 9 10 11 12 12 11 10 11 12 11 11 10 10 9 9 10 10 10 9 9 9 7 5 2 360 360 360 0 2 6 10 14 17 19 20 21 21 21 21 22 24 25 24 23 22 22 22 23 22 22 22 21 20 19 20 21 23 26 29 32 34 37 38 40 40
353 354 356 357 358 358 358 359 360 360 1 4 5 4 4 4 4 4 6 6 7 8 9 10 11 13 13 11 11 12 13 12 12 11 11 10 10 10 10 10 10 10 9 7 4 2 1 1 1 2 4 9 14 17 19 19 19 19 20 20 21 23 25 24 24 24 24 24 24 24 25 25 25 24 23 22 23 23 24 26 28 31 32 33 33 31
353 354 355 356 358 359 359 359 359 360 2 4 5 4 5 5 4 4 5 5 6 7 8 9 10 11 13 12 10 11 13 13 13 12 12 11 11 11 11 11 11 10 9 8 6 4 3 2 2 2 3 6 11 16 18 18 18 18 20 20 20 21 22 23 23 23 23 23 23 23 24 26 27 27 26 26 25 25 24 24 24 25 26 27 27 25
353 354 355 355 357 358 359 359 359 0 2 4 5 5 6 6 5 4 4 5 5 6 7 8 9 10 11 12 10 10 12 13 13 13 12 12 11 12 12 12 12 11 10 9 8 6 4 3 3 2 3 4 8 12 15 17 17 17 19 21 20 19 19 20 21 21 22 22 22 22 23 24 26 27 27 27 26 26 25 24 24 23 22 20 17 13
352 353 354 354 355 356 357 358 359 0 2 3 5 6 6 6 7 5 4 5 5 6 7 8 9 9 10 11 10 9 10 12 12 12 12 12 12 12 12 12 12 12 12 10 9 8 6 4 3 3 3 3 5 8 11 14 15 15 16 18 19 18 17 17 19 20 20 21 21 22 22 22 23 25 26 26 26 25 25 24 24 23 23 23 19 13
352 352 353 354 354 355 356 358 360 1 1 2 4 5 5 6 6 5 5 5 6 6 7 8 9 9 9 10 11 10 9 10 12 12 12 12 12 12 12 12 12 12 13 12 11 9 8 6 4 4 4 3 3 5 7 10 12 12 12 14 16 15 14 14 14 15 16 17 18 19 20 20 21 22 23 24 25 25 24 23 22 21 21 23 24 21
352 352 353 353 353 354 355 357 358 359 360 1 3 5 5 5 6 5 4 5 6 6 7 8 8 9 9 9 11 11 9 9 11 12 12 12 12 12 12 12 12 12 13 13 12 10 8 7 6 4 4 3 3 3 4 6 8 10 10 10 11 11 10 9 9 9 9 10 11 13 15 17 18 19 20 21 22 24 25 25 24 23 22 22 22 22
352 351 352 352 352 353 354 355 355 357 359 360 1 4 4 4 5 5 5 5 5 6 7 7 8 9 9 9 10 11 10 9 9 11 12 12 12 12 11 12 12 12 13 13 13 11 9 7 6 5 4 3 2 1 1 2 4 5 6 7 8 7 6 4 3 3 3 3 3 5 8 11 13 15 17 18 20 23 25 26 26 26 27 27 26 23
352 351 351 352 352 352 354 355 355 356 358 359 360 2 4 3 4 5 5 5 4 5 6 7 7 8 8 8 9 10 10 10 10 10 11 12 12 12 12 12 12 12 12 13 14 13 11 8 7 5 4 3 2 1 360 359 359 0 1 3 5 5 5 3 2 0 359 358 358 358 0 3 6 9 12 15 18 21 23 25 26 26 27 31 32 29
352 351 351 351 352 352 353 356 356 356 357 359 359 1 2 3 3 4 4 5 4 4 5 7 7 7 7 8 8 8 9 10 10 10 10 11 11 11 11 12 12 12 12 12 13 13 13 11 9 7 5 3 2 1 359 357 356 356 356 357 359 2 3 4 4 3 2 1 359 357 357 358 360 3 6 9 12 16 20 23 24 23 23 25 29 29
352 351 350 351 352 351 352 354 355 356 356 357 359 360 1 2 3 3 3 4 4 3 4 5 6 7 7 7 7 7 8 8 9 9 10 10 10 10 10 11 11 12 12 12 12 12 13 13 11 9 7 5 2 1 360 358 355 353 352 351 353 355 358 0 2 3 4 4 3 1 359 357 358 360 1 4 6 9 14 18 21 21 21 20 22 22
351 351 350 350 351 351 351 352 353 355 356 356 358 359 360 1 3 3 3 3 3 3 3 4 5 6 6 7 7 7 7 7 7 8 9 9 10 10 10 10 10 11 12 12 12 12 12 12 12 11 9 7 4 1 360 359 356 353 349 346 346 348 350 352 355 357 359 1 2 3 1 359 359 0 1 3 5 5 7 10 14 16 18 18 19 18
350 351 351 350 350 350 351 351 352 354 356 356 357 359 359 0 1 2 2 3 3 2 2 2 4 5 6 6 6 6 6 6 7 7 7 8 9 9 9 9 9 10 11 11 12 12 12 12 12 12 10 8 6 2 360 358 357 355 351 346 342 341 341 343 345 348 350 352 355 358 360 358 357 359 1 2 4 4 3 4 6 8 10 12 13 15
350 351 351 351 351 351 352 353 353 354 355 355 356 357 358 359 359 1 2 2 2 1 1 1 2 3 4 5 6 6 5 6 6 6 6 7 8 8 8 8 8 9 10 10 11 12 12 12 12 13 13 11 9 5 1 359 357 355 353 350 345 339 336 335 336 338 340 342 343 347 352 353 352 353 355 357 358 359 359 359 359 360 2 4 6 6
350 351 351 351 352 352 352 353 352 352 353 354 354 355 356 357 358 359 0 1 1 1 0 360 360 1 3 4 5 5 5 5 5 5 5 6 6 7 7 7 7 8 8 9 10 11 11 11 11 12 13 13 12 9 5 2 358 355 353 351 349 344 339 334 330 329 330 331 332 334 337 341 344 344 345 347 348 350 351 352 353 353 354 356 357 358
348 350 350 350 350 351 351 351 351 351 351 352 352 353 353 354 356 357 359 360 0 0 360 359 359 359 1 2 4 4 5 4 4 4 5 5 5 6 6 7 7 7 7 8 9 10 10 10 10 10 11 12 13 12 9 6 2 358 354 351 350 348 345 340 334 328 324 323 322 322 324 327 330 333 334 335 336 338 340 342 343 345 346 346 347 348
346 348 350 350 350 350 350 349 349 349 349 350 351 351 351 352 353 355 357 358 359 359 359 359 358 358 359 0 2 3 4 4 4 4 4 4 4 5 5 6 6 6 6 6 7 8 9 10 10 9 9 10 11 12 11 9 6 2 357 353 349 348 346 344 341 336 329 324 319 316 315 316 317 319 321 323 324 327 329 331 332 333 334 335 336 338
345 347 348 350 351 350 349 349 349 348 347 348 349 349 350 351 352 353 355 357 358 358 358 358 358 358 358 359 360 1 2 3 3 3 3 3 4 4 4 4 4 5 5 5 6 7 8 9 10 9 9 9 9 10 11 11 9 5 1 356 351 347 345 344 343 341 338 333 327 320 315 312 311 311 311 312 313 315 317 319 321 322 323 324 324 325
345 346 348 349 350 350 349 349 349 348 348 348 348 349 349 349 350 352 353 355 356 357 357 358 357 357 357 357 358 359 360 1 2 2 2 2 3 3 3 3 3 3 4 4 5 6 7 8 9 9 9 9 9 9 10 11 11 9 5 0 355 349 345 343 342 341 340 339 336 331 324 318 314 312 310 309 308 308 307 307 308 309 310 310 311 311
344 346 347 348 349 350 350 349 349 349 349 349 349 349 349 349 350 351 352 353 354 355 356 356 357 357 356 357 357 358 358 359 0 1 2 2 2 2 2 2 2 2 2 3 3 4 5 6 8 9 9 9 9 8 9 10 11 11 8 5 0 354 348 343 340 339 339 339 338 336 333 329 324 320 317 315 313 312 310 307 304 302 301 301 301 303
344 345 346 347 348 349 349 349 349 350 350 350 349 350 350 350 350 351 351 352 352 353 354 355 356 356 356 356 357 356 356 357 358 359 0 0 0 1 1 1 1 1 1 2 2 2 3 4 6 7 8 8 9 8 8 9 11 11 10 8 5 0 354 347 341 337 336 335 336 336 335 333 331 328 325 322 320 317 316 314 311 308 306 304 303 303